Location: Poughquag
(41.6090°N, 73.6820°W)
Time: 12:47:47
(UTC-04:00)

A-11 Canister half - Pass Details

Date: 02 June 2020
Orbit: 1527 x 1682 km, 47.3° (Epoch: 06 July)

Event Time Altitude Azimuth Distance (km) Brightness Sun altitude
Rises 09:48:45 0° 270° (W) 4,676 11.1 47.1°
Reaches altitude 10° 09:51:50 10° 274° (W) 3,700 10.7 47.6°
Maximum altitude 10:01:05 63° 355° (N) 1,702 9.9 49.3°
Drops below altitude 10° 10:10:36 10° 76° (ENE) 3,790 11.8 51.0°
Sets 10:13:48 0° 80° (E) 4,796 12.1 51.6°
